User: anonymous
Location: Darlington Observatory
(36.4817°N, 105.8156°W)
Time: 06:25:27
(UTC-06:00)
Language:

MOS 1 - Orbit

View from above orbital plane
View from above orbital plane
View from above satellite
View from above satellite

Ground track
Ground track

The orbit data is extracted from the following two-line orbital elements,

1 17527U 87018A   14205.05339177 -.00000054  00000-0 -50573-5 0  5816
2 17527 099.2153 186.7004 0008097 330.9606 070.2600 14.02279532401005
Epoch (UTC): 24 July 2014 01:16:53
Eccentricity: 0.0008097
inclination: 99.2153°
perigee height: 880 km
apogee height: 892 km
right ascension of ascending node: 186.7004°
argument of perigee: 330.9606°
revolutions per day: 14.02279532
mean anomaly at epoch: 70.2600°
orbit number at epoch: 40100

The dashed part of the orbit path shows where the satellite is in the earth's shadow,  

DLR